Location: Huesca
(42.1318°N, 0.4078°W)
Time: 11:50:52
(UTC+01:00)

O/OREOS (USA 219) - Pass Details

Date: 15 November 2024
Orbit: 590 x 609 km, 72.0° (Epoch: 06 December)

Event Time Altitude Azimuth Distance (km) Brightness Sun altitude
Rises 20:03:03 0° 243° (WSW) 2,823 ? -26.5°
Reaches altitude 10° 20:05:55 10° 263° (W) 1,923 ? -27.0°
Maximum altitude 20:08:50 18° 305° (NW) 1,494 ? -27.6°
Enters shadow 20:11:32 11° 346° (NNW) 1,873 ? -28.1°
